Regional Weather Roundup
Issued by NWS

Home | Current Version | Previous Version | Text Only | Print | Product List | Glossary On
Versions: 1 2 3 4 5 6 7 8 9 10 11 12 13 14 15 16 17 18 19 20 21 22 23 24 25 26 27 28 29 30 31 32 33 34 35 36 37 38 39 40 41 42 43 44 45 46 47 48 49 50
000
ASUS45 KABQ 290310
RWRNM
WEATHER ROUNDUP FOR NEW MEXICO
NATIONAL WEATHER SERVICE ALBUQUERQUE NM
900 PM MDT MON JUL 28 2014

NOTE: "FAIR" MEANS FEW OR NO CLOUDS BELOW 12,000 FEET AGL WITH NO
       SIGNIFICANT WEATHER OR OBSTRUCTIONS TO VISION.

      THIS PRODUCT IS RELEASED AS TWO VERSIONS.  ONE VERSION NEAR
      THE TOP OF THE HOUR CONTAINING PRELIMINARY DATA FROM ALBUQUERQUE
      AND OTHER STATIONS.  A FINAL VERSION WITH ADDITIONAL DATA IS
      ISSUED ABOUT 10 MINUTES AFTER THE HOUR.

NMZ501-503-504-510>518-290400-
NORTHWEST PLATEAU/NORTHCENTRAL MOUNTAINS

CITY           SKY/WX    TMP DP  RH WIND       PRES   REMARKS
FARMINGTON     CLEAR     66  58  75 NE10      30.31R
LOS ALAMOS     CLOUDY    63  55  74 N6        30.46R
SANTA FE       CLOUDY    68  55  63 SE9       30.38R
TAOS           CLOUDY    64  54  68 NW5       30.45R
ANGEL FIRE     CLOUDY    60  55  84 CALM      30.54S

$$
NMZ402-403-502-505>509-290400-
WESTCENTRAL MOUNTAINS/SOUTHWEST MOUNTAINS

CITY           SKY/WX    TMP DP  RH WIND       PRES   REMARKS
GALLUP         CLOUDY    65  57  75 CALM      30.37R
SILVER CITY    PTCLDY    75  54  46 N5        30.29R

$$
NMZ407-409-411-412-290400-
SOUTHERN DESERTS

CITY           SKY/WX    TMP DP  RH WIND       PRES   REMARKS
LORDSBURG      FAIR      77  61  57 CALM      30.19R
DEMING         PTCLDY    82  56  40 N6        30.18R
LAS CRUCES     CLOUDY    73  66  80 N7        30.22R
HOLLOMAN AFB   MOCLDY    77  63  61 NW8       30.17R
ALAMOGORDO     MOCLDY    81  57  44 NW6       30.19R
T OR C         MOCLDY    76  57  51 SE3       30.24R

$$
NMZ519>523-290400-
CENTRAL VALLEYS/CENTRAL HIGHLANDS

CITY           SKY/WX    TMP DP  RH WIND       PRES   REMARKS
ALBUQUERQUE    LGT RAIN  71  61  70 E17       30.30R
DOUBLE EAGLE   CLOUDY    73  55  53 CALM      30.33R
MORIARTY ARPT  CLOUDY    65  58  77 E6        30.41R
CLINES CORNERS RAIN      59  57  93 S10       30.45R FOG
BELEN          CLOUDY    78  54  42 N7        30.28R
SOCORRO        MOCLDY    78  52  39 SW5       30.24R

$$
NMZ524>526-539-540-290400-
SOUTHCENTRAL MOUNTAINS

CITY           SKY/WX    TMP DP  RH WIND       PRES   REMARKS
RUIDOSO        CLOUDY    66  57  72 CALM      30.44S

$$
NMZ527>531-290400-
NORTHEAST HIGHLANDS/NORTHEAST PLAINS

CITY           SKY/WX    TMP DP  RH WIND       PRES   REMARKS
LAS VEGAS      MOCLDY    63  57  81 SE9       30.42R
RATON          RAIN      60  56  86 N17       30.40S FOG
CLAYTON        CLOUDY    67  63  87 SE7       30.33R

$$
NMZ532>537-290400-
EASTCENTRAL PLAINS

CITY           SKY/WX    TMP DP  RH WIND       PRES   REMARKS
TUCUMCARI      MOCLDY    74  60  61 CALM      30.26R
CANNON AFB     CLOUDY    72  67  84 SE5       30.30R
CLOVIS AIRPORT CLOUDY    73  63  68 SE8       30.32R

$$
NMZ028-029-538-290400-
SOUTHEAST PLAINS

CITY           SKY/WX    TMP DP  RH WIND       PRES   REMARKS
ROSWELL        LGT RAIN  86  61  42 E13       30.17R
ARTESIA        PTCLDY    86  59  39 E14G21    30.15R
CARLSBAD       MOCLDY    90  58  33 E15       30.11R
HOBBS          CLEAR     81  61  50 E13G22    30.22R


$$


USA.gov is the U.S. government's official web portal to all federal, state and local government web resources and services.